Terminal Aerodrome Forecast
Issued by NWS

Home | Current Version | Previous Version | Text Only | Print | Product List | Glossary On
Versions: 1 2 3 4 5 6 7 8 9 10 11 12 13
000
FTUS45 KVEF 242300
TAFVGT
TAF
KVGT 242333Z 2500/2524 20012G20KT P6SM FEW150 FEW250
     FM250300 23008KT P6SM SCT150
     FM251900 17010G20KT P6SM SCT100 BKN150=

USA.gov is the U.S. government's official web portal to all federal, state and local government web resources and services.